This demonstration page uses our WeatherBlox Daily Observations layout. Learn more.

Left ArrowRight Arrow

Hourly Observations for May 8, 2018

Temp ( °F °C ) Dew Point ( °F °C ) Humidity (%) Winds ( mph kmh ) Pressure ( in mb ) Visibility ( mi km ) Precip ( " mm )
12:53 am 00:53 Clear 64 17.8 53 11.7 68 68 Calm 29.98 1015 10 16 0.00 0.00
1:53 am 01:53 Clear 61 16.1 53 11.7 75 75 Calm 29.98 1015 10 16 0.00 0.00
2:53 am 02:53 Clear 60 15.6 53 11.7 78 78 Calm 29.97 1015 10 16 0.00 0.00
3:53 am 03:53 Clear 59 15 53 11.7 81 81 Calm 29.98 1015 10 16 0.00 0.00
4:53 am 04:53 Clear 57 13.9 53 11.7 87 87 Calm 29.98 1015 10 16 0.00 0.00
5:53 am 05:53 Clear 56 13.3 52 11.1 87 87 Calm 29.99 1016 10 16 0.00 0.00
6:53 am 06:53 Sunny 57 13.9 52 11.1 83 83 Calm 30.00 1016 10 16 0.00 0.00
7:53 am 07:53 Sunny 62 16.7 53 11.7 73 73 Calm 30.02 1017 10 16 0.00 0.00
8:53 am 08:53 Sunny 69 20.6 54 12.2 59 59 Calm 30.02 1017 10 16 0.00 0.00
9:53 am 09:53 Sunny 72 22.2 51 10.6 48 48 Calm 30.01 1016 10 16 0.00 0.00
10:53 am 10:53 Sunny 77 25 52 11.1 42 42 VRB 5 7 30.01 1016 10 16 0.00 0.00
11:53 am 11:53 Sunny 80 26.7 53 11.7 39 39 S 7 11 29.99 1016 10 16 0.00 0.00
12:53 pm 12:53 Sunny 81 27.2 54 12.2 39 39 S 7 11 29.98 1015 10 16 0.00 0.00
1:53 pm 13:53 Sunny 84 28.9 54 12.2 36 36 Calm 29.96 1014 10 16 0.00 0.00
2:53 pm 14:53 Sunny 86 30 52 11.1 31 31 S 8 13 29.94 1014 10 16 0.00 0.00
3:53 pm 15:53 Sunny 87 30.6 51 10.6 29 29 SSE 10 17 29.91 1013 10 16 0.00 0.00
4:53 pm 16:53 Sunny 86 30 52 11.1 31 31 SSW 9 15 29.91 1013 10 16 0.00 0.00
5:24 pm 17:24 Partly Cloudy with Nearby Thunderstorms 86 30 52 11.1 31 31 SSE 7 11 29.91 1013 10 16 0.00 0.00
5:39 pm 17:39 Mostly Sunny 85 29.4 52 11.1 32 32 S 7 11 29.91 1013 10 16 0.00 0.00
5:53 pm 17:53 Mostly Sunny 86 30 52 11.1 31 31 S 3 6 29.90 1012 10 16 0.00 0.00
6:53 pm 18:53 Sunny 81 27.2 51 10.6 35 35 N 7 11 29.90 1013 10 16 0.00 0.00
7:53 pm 19:53 Mostly Sunny 78 25.6 53 11.7 42 42 W 3 6 29.89 1012 10 16 0.00 0.00
8:53 pm 20:53 Partly Cloudy 76 24.4 53 11.7 45 45 N 3 6 29.89 1012 10 16 0.00 0.00

Powered by AerisWeather